Overview Statistics Trail Chart Weather Telemetry Raw packets
 

This is the latest recevied weather packets stored in our database for station/object IZ8FMH-11. If no packets are shown the sender has not sent any weather packets the latest 10 day(s).

<< 5 6 7 8 9 10 11 >>
Time Temp. Humidity Pressure Rain* Wind** Luminosity Snow
1788300302 28.33° C 41% 1014.9 hPa - - - -
1788298502 28.33° C 40% 1014.7 hPa - - - -
1788296702 28.89° C 43% 1014.7 hPa - - - -
1788294902 28.89° C 44% 1014.6 hPa - - - -
1788293102 29.44° C 45% 1014.6 hPa - - - -
1788291302 29.44° C 45% 1014.6 hPa - - - -
1788289506 29.44° C 48% 1014.4 hPa - - - -
1788287701 30° C 54% 1014.3 hPa - - - -
1788285901 30° C 58% 1014 hPa - - - -
1788284101 30.56° C 54% 1013.9 hPa - - - -
1788282301 30.56° C 56% 1013.8 hPa - - - -
1788280501 30.56° C 55% 1013.8 hPa - - - -
1788278701 30.56° C 51% 1013.7 hPa - - - -
1788276901 30.56° C 62% 1013.7 hPa - - - -
1788275101 30.56° C 65% 1013.7 hPa - - - -
1788273301 30.56° C 64% 1013.7 hPa - - - -
1788271501 30.56° C 62% 1013.7 hPa - - - -
1788269701 30.56° C 62% 1013.6 hPa - - - -
1788267900 30.56° C 63% 1013.7 hPa - - - -
1788266101 30.56° C 61% 1013.7 hPa - - - -
1788264302 30.56° C 60% 1013.9 hPa - - - -
1788262502 30° C 58% 1013.8 hPa - - - -
1788260702 30° C 59% 1014 hPa - - - -
1788258902 30° C 59% 1014 hPa - - - -
1788257102 29.44° C 59% 1014.1 hPa - - - -

* Rain since midnight (hover to see other rain measurements)
** Current wind speed in m/s (hover to see current wind gust speed)